Home   Weather   Lancaster   Past weeks
Flag for USA

Past Weather in Lancaster, Ohio, USA — Yesterday and Last 2 Weeks

Now
56 °F

Overcast.


Feels Like: 53 °F
Forecast: 57 / 38 °F
Wind: 12 mph from West

Location: Fairfield County Airport

Current Time: Apr 9, 2020 at 5:01:44 am

Latest Report: Apr 9, 2020 at 4:32 am


Visibility: 10 mi

Pressure: 29.53 "Hg

Humidity: 87%

Dew Point: 52 °F

Location of LancasterLocation

Past Weather in Lancaster — Graph

°F

Lancaster Temperature Yesterday

Maximum temperature yesterday: 73 °F (at 4:53 pm)
Minimum temperature yesterday: 56 °F (at 3:20 am)
Average temperature yesterday: 63 °F

High & Low Weather Summary for the Past Weeks

 TemperatureHumidityPressure
High77 °F (Mar 28, 2:02 pm)100% (Mar 28, 7:53 am)30.19 "Hg (Mar 28, 7:53 am)
Low32 °F (Apr 2, 6:53 am)21% (Apr 3, 5:53 pm)29.46 "Hg (Apr 9, 1:16 am)
Average53 °F74%29.93 "Hg
* Reported Mar 25 2:53 am — Apr 9 2:53 am, Lancaster. Weather by CustomWeather, © 2020

Note: Actual official high and low records may vary slightly from our data, if they occured in-between our weather recording intervals... More about our weather records

Lancaster Weather History for the Previous 24 Hours

Scroll right to see more
 ConditionsComfort  
Time TempWeatherWind HumidityBarometerVisibility
2:53 am
Thu, Apr 9
54 °FClear.5 mph86%29.49 "Hg10 mi
1:53 am54 °FClear.12 mph90%29.48 "Hg10 mi
1:16 am54 °FLight rain. Partly cloudy.16 mph90%29.46 "Hg10 mi
12:53 am55 °FHeavy rain. Fog.6 mph90%29.57 "Hg3 mi
12:38 am55 °FHeavy rain. Fog.17 mph90%29.61 "Hg3 mi
12:00 am57 °FStrong thunderstorms. Mostly cloudy.17 mph78%29.59 "Hg4 mi
9:53 pm
Wed, Apr 8
57 °FClear.3 mph69%29.56 "Hg10 mi
8:53 pm58 °FClear.No wind70%29.60 "Hg10 mi
7:53 pm66 °FSunny.3 mph50%29.61 "Hg10 mi
6:53 pm72 °FSunny.No wind34%29.64 "Hg10 mi
5:53 pm73 °FSunny.5 mph38%29.66 "Hg10 mi
4:53 pm73 °FSunny.6 mph44%29.68 "Hg10 mi
3:53 pm72 °FSunny.5 mph48%29.70 "Hg10 mi
2:53 pm70 °FSunny.7 mph57%29.70 "Hg10 mi
1:53 pm68 °FSunny.3 mph65%29.72 "Hg10 mi
1:29 pm67 °FScattered clouds.10 mph68%29.75 "Hg10 mi
1:09 pm67 °FPartly sunny.8 mph71%29.75 "Hg10 mi
12:53 pm66 °FScattered clouds.7 mph70%29.75 "Hg10 mi
12:33 pm66 °FPassing clouds.12 mph70%29.76 "Hg10 mi
11:53 am64 °FOvercast.12 mph75%29.75 "Hg9 mi
10:53 am62 °FOvercast.12 mph78%29.73 "Hg9 mi
10:30 am62 °FOvercast.10 mph78%29.74 "Hg9 mi
8:53 am63 °FSunny.12 mph81%29.69 "Hg10 mi
7:53 am58 °FSunny.No wind93%29.67 "Hg10 mi
6:53 am58 °FClear.3 mph93%29.65 "Hg10 mi
6:32 am57 °FThundershowers. Passing clouds.7 mph96%29.66 "Hg10 mi
5:53 am58 °FPassing clouds.7 mph90%29.63 "Hg10 mi
Weather by CustomWeather, © 2020

See weather overview

Advertising